Track FLOCK 3K 12 now! 10-day predictions FLOCK 3K 12 is classified as:
1 43903U 18111AD 22136.49092949 .00042618 00000-0 11498-2 0 9997 2 43903 97.1982 28.1979 0016600 170.3790 189.7776 15.37524691188693